TimeMDT,TemperatureF,Dew PointF,Humidity,Sea Level PressureIn,VisibilityMPH,Wind Direction,Wind SpeedMPH,Gust SpeedMPH,PrecipitationIn,Events,Conditions,WindDirDegrees,DateUTC
12:53 AM,62.1,57.0,84,29.93,10.0,East,8.1,-,N/A,,Scattered Clouds,100,2013-09-13 06:53:00
1:53 AM,62.1,57.0,84,29.92,10.0,ESE,10.4,-,N/A,,Clear,110,2013-09-13 07:53:00
2:53 AM,61.0,57.9,90,29.91,10.0,SE,6.9,-,N/A,,Clear,130,2013-09-13 08:53:00
3:53 AM,61.0,57.0,87,29.91,10.0,SE,8.1,-,N/A,,Partly Cloudy,130,2013-09-13 09:53:00
4:53 AM,61.0,55.9,83,29.90,10.0,East,10.4,-,N/A,,Clear,100,2013-09-13 10:53:00
5:53 AM,57.9,55.9,93,29.90,10.0,ESE,11.5,-,N/A,,Scattered Clouds,120,2013-09-13 11:53:00
6:53 AM,57.9,55.0,90,29.90,10.0,ESE,10.4,-,N/A,,Scattered Clouds,110,2013-09-13 12:53:00
7:53 AM,61.0,55.0,81,29.91,10.0,East,10.4,-,N/A,,Scattered Clouds,100,2013-09-13 13:53:00
8:53 AM,63.0,57.0,81,29.91,10.0,ESE,11.5,-,N/A,,Partly Cloudy,120,2013-09-13 14:53:00
9:53 AM,66.0,55.9,70,29.91,10.0,ESE,13.8,-,N/A,,Partly Cloudy,110,2013-09-13 15:53:00
10:53 AM,68.0,57.0,68,29.89,10.0,ESE,9.2,-,N/A,,Partly Cloudy,120,2013-09-13 16:53:00
11:53 AM,72.0,55.9,57,29.87,10.0,SE,9.2,-,N/A,,Scattered Clouds,130,2013-09-13 17:53:00
12:53 PM,75.0,54.0,48,29.83,10.0,South,4.6,-,N/A,,Scattered Clouds,170,2013-09-13 18:53:00
1:53 PM,78.1,50.0,37,29.80,10.0,North,5.8,-,N/A,,Clear,360,2013-09-13 19:53:00
2:53 PM,75.9,55.0,48,29.78,10.0,WNW,19.6,-,N/A,,Partly Cloudy,300,2013-09-13 20:53:00
3:53 PM,73.9,54.0,50,29.77,10.0,NW,11.5,-,N/A,,Clear,320,2013-09-13 21:53:00
4:53 PM,77.0,48.9,37,29.73,10.0,West,9.2,-,N/A,,Clear,280,2013-09-13 22:53:00
5:53 PM,73.0,55.0,53,29.75,10.0,West,8.1,-,N/A,,Clear,280,2013-09-13 23:53:00
6:53 PM,71.1,57.9,63,29.75,10.0,NW,3.5,-,N/A,,Partly Cloudy,310,2013-09-14 00:53:00
7:53 PM,69.1,55.9,63,29.75,10.0,NNW,3.5,-,N/A,,Clear,340,2013-09-14 01:53:00
8:53 PM,69.1,55.9,63,29.77,10.0,NNW,4.6,-,N/A,,Partly Cloudy,340,2013-09-14 02:53:00
9:53 PM,64.9,57.9,78,29.78,10.0,Calm,Calm,-,N/A,,Clear,0,2013-09-14 03:53:00
10:53 PM,62.1,59.0,90,29.79,10.0,ESE,3.5,-,N/A,,Scattered Clouds,110,2013-09-14 04:53:00
11:26 PM,64.4,57.2,77,29.97,10.0,SW,5.8,-,N/A,Thunderstorm,Overcast,230,2013-09-14 05:26:00
11:44 PM,60.8,57.2,88,29.97,1.8,WNW,19.6,-,0.07,Rain-Thunderstorm,Heavy Thunderstorms and Rain,300,2013-09-14 05:44:00
11:53 PM,54.0,53.1,97,29.83,1.0,North,11.5,-,0.32,Rain-Thunderstorm,Heavy Thunderstorms and Rain,360,2013-09-14 05:53:00